[[{"header":{"parameterUnit":"m.s-1","parameterCategory":2,"la1":30.2991,"la2":30.254,"lo1":-89.0895,"lo2":-89.0444,"dy":0.0017,"dx":0.0017,"nx":28,"ny":28,"refTime":"2023-08-24T09:00:00:Z","depth":"0","parameterNumber":2,"parameterNumberName":"U-component_of_CURRENTS"},"data":[0,0,0,0,0,0,0,0,0,0,0,0,0,0,0,0,0,0,0,0,0,0,0,0,0,0,0,0,0,0,0,0,0,0,0,0,0,0,0,0,0,0,0,0,0,0,0,0,0,0,0,0,0,0,0,0,0,0,0.2,0.2,0,0.1998,0.1997,0.1997,0.1928,0.1927,0.1925,0.1924,0.1914,0.1915,0.1916,0,0,0,0,0,0,0,0,0,0,0,0,0,0.1952,0.1953,0.2,0.2,0.2001,0.1998,0.1997,0.1997,0.1928,0.1927,0.1925,0.1924,0.1914,0.1915,0.1916,0,0,0,0,0,0,0,0,0,0,0,0,0,0.1959,0.1953,0.2,0.197,0.1967,0.1998,0.1997,0.1997,0.1929,0.1927,0.1925,0.1923,0.1913,0.1915,0.1916,0.1966,0,0,0.1921,0.1921,0,0,0,0,0,0,0,0,0.1959,0.1961,0.1974,0.1972,0.1969,0.1965,0.1977,0.1988,0.1929,0.1938,0.1924,0.1922,0.1935,0.1935,0.1932,0.1965,0.1965,0.1921,0.1922,0.1922,0.1923,0,0,0,0,0,0,0,0.1959,0.196,0.1994,0.1974,0.1972,0.1959,0.1957,0.1978,0.1944,0.1937,0.1934,0.1941,0.1933,0.1931,0.1931,0.1965,0.1921,0.1922,0.1923,0.1924,0.2163,0.2168,0,0,0,0,0,0,0.197,0.196,0.1994,0.1995,0.1964,0.1962,0.196,0.1965,0.1944,0.194,0.1943,0.1938,0.1929,0.193,0.1931,0.2042,0.1922,0.1924,0.1925,0.2157,0.2164,0.217,0,0,0,0,0,0,0.1969,0.1973,0.1995,0.1981,0.1983,0.1965,0.1971,0.1966,0.1971,0.195,0.1944,0.1955,0.1928,0.1929,0.1984,0.2039,0.1924,0.1926,0.2151,0.2159,0.2167,0.223,0,0,0,0,0,0,0.1968,0.1973,0.1984,0.1982,0.1985,0.2024,0.1974,0.1967,0.1981,0.1975,0.1959,0.1955,0.1926,0.1983,0.1986,0.2039,0.1927,0.2144,0.2155,0.2164,0.2221,0.2239,0.2255,0,0,0,0,0,0.1966,0.1987,0.1984,0.1989,0.1999,0.2026,0.2027,0.2003,0.1984,0.1998,0.2005,0.1956,0.2051,0.1987,0.199,0.2045,0.2139,0.2152,0.2164,0.2214,0.2236,0.2255,0,0,0,0,0,0,0.1968,0.1983,0.1979,0.2002,0.2021,0.2016,0.2027,0.2023,0.2038,0.2031,0.2008,0.2007,0.2086,0.2078,0.201,0.2158,0.2095,0.2109,0.2133,0.2154,0.217,0.2177,0.1928,0,0,0,0,0,0.1979,0.1996,0.2013,0.2033,0.2045,0.2044,0.2054,0.2044,0.2057,0.2059,0.2053,0.2081,0.2143,0.2153,0.2193,0.2256,0.2259,0.2309,0.2325,0.2339,0.2357,0.2416,0.2437,0.221,0.221,0.221,0,0,0.1989,0.1997,0.2008,0.2035,0.2041,0.2076,0.2043,0.2065,0.2104,0.2061,0.2108,0.2137,0.2182,0.2259,0.2294,0.2249,0.2412,0.2355,0.2365,0.2375,0.2431,0.2452,0.2471,0.2219,0.2217,0.2216,0,0,0.2015,0.2023,0.2048,0.2068,0.2092,0.2103,0.212,0.2132,0.2147,0.2203,0.2212,0.2289,0.2326,0.2388,0.2425,0.2575,0.251,0.2583,0.2647,0.2705,0.2722,0.2737,0.2769,0.2786,0.2574,0.2575,0.2575,0,0.2028,0.2062,0.2062,0.2091,0.2124,0.2125,0.2174,0.2199,0.2228,0.2267,0.2228,0.2369,0.2404,0.2542,0.2598,0.261,0.2606,0.2545,0.2719,0.2734,0.2748,0.2778,0.2796,0.2579,0.2579,0.2578,0.2578,0,0.2073,0.2105,0.2124,0.2167,0.2201,0.2243,0.2284,0.2324,0.234,0.2362,0.2479,0.2529,0.2607,0.2652,0.2665,0.281,0.2763,0.2734,0.2643,0.2774,0.2798,0.2816,0.2586,0.2584,0.2583,0.2582,0,0,0.2113,0.2152,0.2161,0.2184,0.225,0.2273,0.2369,0.2456,0.2497,0.2546,0.2621,0.2768,0.2766,0.2817,0.2848,0.2908,0.3023,0.2858,0.2858,0.2848,0.3117,0.299,0.2996,0.2988,0.2992,0.2995,0.309,0,0.2164,0.2215,0.2241,0.2312,0.2354,0.2398,0.247,0.254,0.2588,0.2648,0.2745,0.2811,0.2835,0.2857,0.2941,0.3007,0.3073,0.2999,0.303,0.3032,0.2868,0.3015,0.2938,0.3007,0.3107,0.311,0.3112,0,0.2222,0.2249,0.2313,0.2374,0.2395,0.2431,0.2536,0.2598,0.2704,0.2735,0.2829,0.286,0.3017,0.2975,0.3158,0.309,0.3128,0.3159,0.3162,0.3033,0.2939,0.29,0.3034,0.2953,0.3138,0.3136,0.3134,0,0.2241,0.2312,0.2357,0.2378,0.2441,0.2482,0.2527,0.2621,0.2664,0.2776,0.2798,0.2954,0.3007,0.3112,0.3194,0.3172,0.3333,0.3308,0.3236,0.3226,0.3167,0.3144,0.3192,0.3431,0.3431,0.3431,0.343,0,0.2295,0.2324,0.2349,0.2363,0.2403,0.2462,0.2512,0.2574,0.2659,0.2705,0.2819,0.2876,0.3034,0.3129,0.3213,0.3275,0.3356,0.3285,0.3259,0.3188,0.3167,0.3095,0.3063,0.3434,0.3433,0.3433,0.3432,0,0.2284,0.2314,0.2341,0.239,0.2398,0.2412,0.2461,0.2497,0.2582,0.2649,0.268,0.2834,0.2965,0.3092,0.3252,0.3268,0.3264,0.3343,0.3232,0.3191,0.3024,0.2999,0.2928,0.284,0.3307,0.3304,0.3302,0,0.2279,0.2292,0.2312,0.2313,0.232,0.2347,0.2365,0.2443,0.2476,0.2616,0.2643,0.2783,0.2872,0.3049,0.3144,0.3258,0.3181,0.3182,0.315,0.3031,0.2987,0.2874,0.2798,0.3115,0.3112,0.3109,0.3107,0,0.2256,0.2248,0.2257,0.2253,0.2255,0.2255,0.2285,0.2301,0.2402,0.246,0.255,0.2632,0.2813,0.2896,0.3004,0.3071,0.3024,0.3122,0.3063,0.2902,0.2727,0.2621,0.3015,0.3083,0.3085,0.3087,0.3088,0.3089,0.2215,0.2194,0.2194,0.2175,0.2179,0.2157,0.213,0.2187,0.2215,0.2303,0.2434,0.2529,0.2682,0.285,0.2869,0.2839,0.285,0.2798,0.28,0.2711,0.2556,0.2863,0.2842,0.2843,0.2844,0.2845,0.2845,0,0.2144,0.2124,0.2122,0.2079,0.2042,0.2065,0.2063,0.2036,0.2037,0.2197,0.2275,0.2423,0.2491,0.2592,0.2648,0.2563,0.2474,0.249,0.2373,0.2331,0.2687,0.2606,0.2454,0.2454,0.2454,0.2454,0.2454,0.2454,0.2105,0.2055,0.2035,0.1939,0.1912,0.1821,0.1794,0.1789,0.1866,0.1963,0.2059,0.2208,0.2369,0.2474,0.2421,0.2368,0.2201,0.2095,0.2062,0.2379,0.2409,0.2438,0.2355,0.2153,0.2152,0.1637,0.1633,0.163]},{"header":{"parameterUnit":"m.s-1","parameterCategory":2,"la1":30.2991,"la2":30.254,"lo1":-89.0895,"lo2":-89.0444,"dy":0.0017,"dx":0.0017,"nx":28,"ny":28,"refTime":"2023-08-24T09:00:00:Z","depth":"0","parameterNumber":3,"parameterNumberName":"V-component_of_CURRENTS"},"data":[0,0,0,0,0,0,0,0,0,0,0,0,0,0,0,0,0,0,0,0,0,0,0,0,0,0,0,0,0,0,0,0,0,0,0,0,0,0,0,0,0,0,0,0,0,0,0,0,0,0,0,0,0,0,0,0,0,0,0.0318,0.0317,0,0.0266,0.0265,0.0265,0.0258,0.0258,0.0258,0.0258,0.0263,0.0263,0.0263,0,0,0,0,0,0,0,0,0,0,0,0,0,0.0342,0.0343,0.0318,0.0317,0.0316,0.0266,0.0265,0.0265,0.0258,0.0258,0.0258,0.0258,0.0263,0.0263,0.0263,0,0,0,0,0,0,0,0,0,0,0,0,0,0.0318,0.0343,0.0318,0.0304,0.0302,0.0266,0.0265,0.0265,0.0257,0.0258,0.0258,0.0258,0.0263,0.0263,0.0263,0.0257,0,0,0.0263,0.0263,0,0,0,0,0,0,0,0,0.032,0.0318,0.0307,0.0305,0.0303,0.0266,0.0275,0.0264,0.0257,0.0278,0.0258,0.0258,0.0267,0.0267,0.026,0.0257,0.0258,0.0263,0.0263,0.0263,0.0263,0,0,0,0,0,0,0,0.0322,0.032,0.03,0.0306,0.0303,0.0276,0.0274,0.0273,0.0275,0.0276,0.0275,0.0264,0.0267,0.026,0.026,0.0258,0.0263,0.0263,0.0263,0.0263,0.0358,0.0361,0,0,0,0,0,0,0.0325,0.0322,0.0302,0.0299,0.0308,0.0276,0.0273,0.028,0.0274,0.0272,0.0263,0.0263,0.026,0.026,0.026,0.0353,0.0263,0.0263,0.0263,0.0356,0.0359,0.0362,0,0,0,0,0,0,0.0326,0.0325,0.0304,0.0305,0.03,0.0275,0.0282,0.0279,0.0272,0.0263,0.0263,0.0261,0.026,0.0261,0.0285,0.035,0.0263,0.0263,0.0353,0.0357,0.036,0.0475,0,0,0,0,0,0,0.0327,0.0326,0.0333,0.0306,0.03,0.0297,0.0281,0.0277,0.0264,0.0263,0.0261,0.0261,0.0261,0.0285,0.0285,0.0348,0.0263,0.0349,0.0354,0.0359,0.0468,0.0482,0.0494,0,0,0,0,0,0.0329,0.0347,0.0334,0.0331,0.0311,0.0297,0.0292,0.0276,0.0263,0.027,0.0278,0.0261,0.0317,0.0287,0.0286,0.0351,0.0347,0.0353,0.0359,0.0462,0.0479,0.0494,0,0,0,0,0,0,0.0364,0.0347,0.0332,0.0344,0.0323,0.0295,0.0298,0.0276,0.0283,0.0288,0.0278,0.028,0.0336,0.0318,0.0285,0.0394,0.0335,0.0341,0.0414,0.0431,0.0444,0.0462,0.0263,0,0,0,0,0,0.0372,0.0383,0.0352,0.0362,0.0354,0.0322,0.0312,0.0299,0.0296,0.0297,0.0297,0.0314,0.0358,0.0371,0.0393,0.0432,0.0397,0.0478,0.0492,0.0503,0.0519,0.0513,0.0527,0.0381,0.0381,0.038,0,0,0.0387,0.0378,0.0383,0.0369,0.0353,0.0378,0.0319,0.0313,0.0356,0.0298,0.0359,0.0355,0.0379,0.0445,0.0468,0.0437,0.0526,0.051,0.052,0.053,0.0521,0.0535,0.0547,0.0385,0.0384,0.0383,0,0,0.0436,0.0416,0.0446,0.0433,0.0411,0.0408,0.0407,0.0383,0.0398,0.043,0.0431,0.0468,0.0491,0.0545,0.0573,0.0668,0.0598,0.0665,0.0746,0.074,0.0751,0.0761,0.0725,0.0731,0.067,0.067,0.067,0,0.0462,0.0499,0.045,0.0474,0.0498,0.0432,0.0491,0.0489,0.0481,0.0518,0.047,0.0546,0.056,0.0676,0.0716,0.0704,0.0655,0.0683,0.0756,0.0765,0.0773,0.0734,0.0739,0.0676,0.0675,0.0675,0.0674,0,0.0536,0.0562,0.0578,0.061,0.0624,0.0654,0.0652,0.0676,0.0674,0.067,0.0742,0.0734,0.078,0.0798,0.0788,0.0873,0.0804,0.0772,0.0711,0.0794,0.0748,0.0751,0.0685,0.0683,0.0681,0.0679,0,0,0.0643,0.0639,0.0652,0.0692,0.0709,0.0734,0.082,0.0889,0.0946,0.0916,0.0997,0.1052,0.0991,0.1018,0.0994,0.0988,0.1008,0.0899,0.0895,0.0856,0.0951,0.0892,0.0888,0.0961,0.0962,0.0963,0.0891,0,0.0741,0.0815,0.0807,0.0916,0.0968,0.0964,0.1053,0.1094,0.1103,0.1146,0.1131,0.1175,0.109,0.11,0.1085,0.1042,0.1021,0.1028,0.0883,0.0879,0.0811,0.0893,0.081,0.0738,0.0894,0.0894,0.0894,0,0.0855,0.0892,0.1003,0.1088,0.1117,0.1173,0.1308,0.1366,0.1404,0.1403,0.14,0.1344,0.1369,0.1255,0.1191,0.1181,0.1079,0.1012,0.1007,0.0917,0.0827,0.0683,0.0736,0.0564,0.0898,0.0897,0.0897,0,0.0983,0.1054,0.1158,0.1178,0.1249,0.1328,0.1386,0.1448,0.1504,0.154,0.1552,0.1529,0.1523,0.1402,0.1252,0.1214,0.114,0.1078,0.0923,0.0915,0.0805,0.0786,0.0673,0.1019,0.1019,0.1019,0.1019,0,0.1119,0.1197,0.1208,0.1261,0.1385,0.1419,0.1547,0.159,0.1649,0.1706,0.1659,0.168,0.155,0.1474,0.1308,0.1131,0.1181,0.0957,0.091,0.0841,0.0827,0.0639,0.0576,0.1016,0.1017,0.1017,0.1018,0,0.1223,0.1241,0.1332,0.1407,0.1434,0.1511,0.1602,0.1676,0.173,0.1799,0.1813,0.1808,0.1728,0.1567,0.1406,0.1222,0.0946,0.0972,0.0889,0.0834,0.0522,0.0471,0.033,0.0261,0.0795,0.0794,0.0792,0,0.1273,0.1328,0.1395,0.1427,0.1452,0.1549,0.1617,0.17,0.1766,0.1861,0.1901,0.1878,0.1841,0.1595,0.1306,0.1028,0.0897,0.0764,0.07,0.0516,0.0423,0.0382,0.0333,0.0584,0.0581,0.0579,0.0577,0,0.1343,0.1353,0.1403,0.1461,0.1523,0.1606,0.1704,0.1766,0.1871,0.1935,0.2006,0.1996,0.1783,0.1501,0.1157,0.0945,0.0637,0.0705,0.0542,0.0287,0.0209,0.0115,0.0601,0.0555,0.0557,0.0559,0.056,0.0561,0.1349,0.1374,0.1417,0.1475,0.1544,0.164,0.1707,0.1809,0.1916,0.201,0.2047,0.2028,0.1654,0.1183,0.0923,0.0387,0.046,0.0197,0.0158,0.014,0.0058,0.0494,0.0383,0.0384,0.0385,0.0385,0.0386,0,0.1327,0.1366,0.1426,0.1493,0.1559,0.1613,0.1747,0.1809,0.1907,0.2009,0.2062,0.1803,0.1341,0.0904,0.0206,-0.0127,-0.0225,-0.0278,-0.0368,-0.0384,0.0004,-0.0022,-0.0259,-0.0259,-0.0259,-0.0259,-0.0258,-0.0258,0.1313,0.1349,0.1388,0.1474,0.1533,0.1619,0.169,0.1782,0.1871,0.19,0.1852,0.1834,0.143,0.0333,-0.0437,-0.0596,-0.076,-0.0816,-0.0846,-0.0616,-0.0575,-0.0536,-0.0578,-0.0927,-0.0928,-0.1253,-0.1256,-0.1259]}],[{"header":{"parameterUnit":"m.s-1","parameterCategory":2,"la1":30.2991,"la2":30.254,"lo1":-89.0895,"lo2":-89.0444,"dy":0.0017,"dx":0.0017,"nx":28,"ny":28,"refTime":"2023-08-24T09:00:00:Z","depth":"2","parameterNumber":2,"parameterNumberName":"U-component_of_CURRENTS"},"data":[0,0,0,0,0,0,0,0,0,0,0,0,0,0,0,0,0,0,0,0,0,0,0,0,0,0,0,0,0,0,0,0,0,0,0,0,0,0,0,0,0,0,0,0,0,0,0,0,0,0,0,0,0,0,0,0,0,0,0.2223,0.2223,0,0.2252,0.2253,0.2253,0.2243,0.2242,0.2241,0.2241,0.223,0.223,0.2231,0,0,0,0,0,0,0,0,0,0,0,0,0,0.2193,0.2193,0.2223,0.2223,0.2223,0.2252,0.2253,0.2253,0.2243,0.2242,0.2241,0.224,0.223,0.223,0.2231,0,0,0,0,0,0,0,0,0,0,0,0,0,0.2213,0.2194,0.2223,0.2221,0.2221,0.2252,0.2253,0.2253,0.2243,0.2242,0.2241,0.224,0.223,0.223,0.2231,0.2256,0,0,0.2233,0.2233,0,0,0,0,0,0,0,0,0.2212,0.2214,0.2221,0.2221,0.2221,0.2242,0.2238,0.2252,0.2243,0.2236,0.2241,0.2239,0.2231,0.2231,0.2241,0.2256,0.2255,0.2233,0.2233,0.2233,0.2234,0,0,0,0,0,0,0,0.2211,0.2213,0.2235,0.2222,0.2222,0.2231,0.2233,0.2241,0.2239,0.2236,0.2235,0.2238,0.223,0.224,0.224,0.2255,0.2233,0.2233,0.2234,0.2234,0.2393,0.2396,0,0,0,0,0,0,0.2205,0.2212,0.2234,0.2236,0.2213,0.2232,0.2234,0.2237,0.2239,0.2239,0.2239,0.2237,0.224,0.224,0.224,0.2308,0.2233,0.2234,0.2234,0.2389,0.2393,0.2398,0,0,0,0,0,0,0.2204,0.2207,0.2233,0.2224,0.2228,0.2234,0.2238,0.2238,0.2248,0.2242,0.224,0.2248,0.2239,0.2239,0.2263,0.2306,0.2234,0.2235,0.2384,0.239,0.2396,0.2421,0,0,0,0,0,0,0.2203,0.2206,0.2212,0.2224,0.2228,0.2242,0.2239,0.224,0.2251,0.225,0.2249,0.2247,0.2238,0.2263,0.2264,0.2306,0.2235,0.2379,0.2387,0.2394,0.2415,0.2427,0.2437,0,0,0,0,0,0.2202,0.2199,0.2212,0.2215,0.2234,0.2241,0.2245,0.2246,0.2253,0.2253,0.2271,0.2247,0.2311,0.2265,0.2266,0.2309,0.2376,0.2385,0.2393,0.241,0.2424,0.2436,0,0,0,0,0,0,0.218,0.2199,0.2212,0.2214,0.2228,0.2239,0.2239,0.2253,0.227,0.2272,0.2271,0.2271,0.2322,0.2322,0.2271,0.2388,0.235,0.2359,0.2363,0.2377,0.2387,0.2348,0.2236,0,0,0,0,0,0.2183,0.2188,0.2209,0.221,0.2217,0.2236,0.2243,0.225,0.2265,0.2271,0.2285,0.2318,0.2363,0.2368,0.2403,0.244,0.2425,0.2484,0.2494,0.2503,0.248,0.2513,0.2522,0.2426,0.2426,0.2426,0,0,0.2174,0.2185,0.2188,0.2206,0.2217,0.2241,0.2237,0.2245,0.2281,0.2268,0.232,0.235,0.2387,0.2443,0.2467,0.2438,0.2528,0.2514,0.252,0.2491,0.2523,0.2531,0.2538,0.2432,0.2431,0.243,0,0,0.2151,0.217,0.2168,0.2191,0.2211,0.2235,0.2241,0.2271,0.2295,0.2338,0.2372,0.2428,0.2464,0.2519,0.2546,0.2642,0.2592,0.2663,0.2663,0.2697,0.2703,0.2708,0.2702,0.2706,0.2657,0.2657,0.2657,0,0.2144,0.2163,0.2168,0.2182,0.2226,0.2237,0.2277,0.2297,0.2338,0.2371,0.2354,0.2471,0.2508,0.2599,0.2635,0.2663,0.2642,0.2598,0.2704,0.2709,0.2713,0.2706,0.271,0.2659,0.2659,0.2659,0.2658,0,0.2135,0.2162,0.2162,0.2206,0.2242,0.2274,0.2321,0.2351,0.2386,0.2416,0.2497,0.2545,0.2608,0.2654,0.2659,0.274,0.2702,0.2715,0.2649,0.2723,0.2712,0.2716,0.2662,0.2661,0.2661,0.266,0,0,0.2148,0.2155,0.2177,0.2217,0.2279,0.2317,0.2368,0.2439,0.2469,0.2508,0.2562,0.2662,0.2667,0.2703,0.2742,0.2761,0.2797,0.2731,0.2732,0.2685,0.2818,0.2716,0.271,0.2801,0.2803,0.2803,0.2795,0,0.217,0.2201,0.2222,0.2308,0.2349,0.2397,0.2443,0.25,0.2532,0.2571,0.2628,0.2691,0.2694,0.2726,0.2748,0.2799,0.2806,0.2794,0.2787,0.2787,0.2655,0.2712,0.2543,0.2513,0.2799,0.2799,0.28,0,0.2214,0.2236,0.2289,0.238,0.2406,0.2441,0.2547,0.2604,0.2638,0.2652,0.2688,0.2704,0.2779,0.2756,0.282,0.2797,0.2799,0.281,0.2811,0.2698,0.2691,0.2492,0.2509,0.2805,0.2805,0.2804,0.2804,0,0.226,0.2333,0.2381,0.2413,0.2468,0.2506,0.2573,0.2619,0.2658,0.2712,0.2713,0.2767,0.2803,0.2819,0.2827,0.2825,0.2844,0.287,0.2772,0.2764,0.261,0.2586,0.2888,0.2888,0.2888,0.2888,0.2888,0,0.2299,0.2358,0.2391,0.2408,0.2477,0.2551,0.26,0.2649,0.269,0.2725,0.2766,0.2752,0.281,0.2812,0.282,0.2786,0.2852,0.2759,0.2758,0.2617,0.2595,0.2842,0.2837,0.2888,0.2888,0.2888,0.2888,0,0.2268,0.2314,0.2366,0.2434,0.2466,0.252,0.2595,0.2617,0.2685,0.2725,0.2748,0.2755,0.2767,0.2791,0.2814,0.2779,0.2774,0.274,0.2543,0.2517,0.267,0.2667,0.265,0.2646,0.2643,0.2641,0.2639,0,0.2192,0.2208,0.2331,0.2374,0.2381,0.2459,0.2486,0.2584,0.2602,0.2699,0.27,0.2725,0.2665,0.2643,0.2617,0.2604,0.2685,0.242,0.2409,0.2646,0.2647,0.2649,0.2651,0.2223,0.2218,0.2214,0.221,0,0.2036,0.2109,0.2153,0.2244,0.2302,0.2361,0.2424,0.2416,0.2542,0.2525,0.2498,0.2469,0.249,0.2352,0.2352,0.2324,0.2416,0.2328,0.2641,0.2304,0.2242,0.2244,0.226,0.2171,0.2175,0.2178,0.218,0.2182,0.1922,0.1938,0.2041,0.2114,0.22,0.2255,0.2241,0.2262,0.2232,0.221,0.2254,0.2163,0.2209,0.2081,0.2021,0.2009,0.2175,0.2106,0.2121,0.214,0.2087,0.2022,0.1898,0.19,0.1902,0.1904,0.1905,0,0.1817,0.1895,0.1917,0.2036,0.2066,0.2191,0.2194,0.2111,0.2,0.1983,0.1907,0.1731,0.1656,0.1737,0.1664,0.166,0.1659,0.16,0.1608,0.1648,0.1684,0.1608,0.1292,0.1289,0.1287,0.1285,0,0,0.1803,0.1827,0.184,0.1871,0.1976,0.199,0.1986,0.1831,0.1749,0.1527,0.146,0.1541,0.166,0.1443,0.1435,0.1354,0.148,0.1296,0.1794,0.1842,0.1874,0.1987,0.1916,0,0,0,0,0]},{"header":{"parameterUnit":"m.s-1","parameterCategory":2,"la1":30.2991,"la2":30.254,"lo1":-89.0895,"lo2":-89.0444,"dy":0.0017,"dx":0.0017,"nx":28,"ny":28,"refTime":"2023-08-24T09:00:00:Z","depth":"2","parameterNumber":3,"parameterNumberName":"V-component_of_CURRENTS"},"data":[0,0,0,0,0,0,0,0,0,0,0,0,0,0,0,0,0,0,0,0,0,0,0,0,0,0,0,0,0,0,0,0,0,0,0,0,0,0,0,0,0,0,0,0,0,0,0,0,0,0,0,0,0,0,0,0,0,0,-0.0226,-0.0226,0,-0.0236,-0.0236,-0.0237,-0.0253,-0.0254,-0.0254,-0.0254,-0.0217,-0.0216,-0.0215,0,0,0,0,0,0,0,0,0,0,0,0,0,-0.0167,-0.0168,-0.0226,-0.0226,-0.0226,-0.0236,-0.0236,-0.0237,-0.0253,-0.0254,-0.0254,-0.0254,-0.0217,-0.0216,-0.0215,0,0,0,0,0,0,0,0,0,0,0,0,0,-0.0188,-0.0169,-0.0226,-0.0234,-0.0235,-0.0236,-0.0236,-0.0237,-0.0253,-0.0254,-0.0254,-0.0254,-0.0218,-0.0216,-0.0215,-0.02,0,0,-0.0209,-0.0209,0,0,0,0,0,0,0,0,-0.0187,-0.0191,-0.0233,-0.0234,-0.0235,-0.0242,-0.0202,-0.0222,-0.0253,-0.0248,-0.0254,-0.0254,-0.022,-0.0218,-0.0223,-0.0198,-0.0197,-0.0209,-0.0208,-0.0208,-0.0207,0,0,0,0,0,0,0,-0.0186,-0.019,-0.0232,-0.0233,-0.0234,-0.0218,-0.0222,-0.0206,-0.0233,-0.0249,-0.025,-0.0248,-0.022,-0.0224,-0.0222,-0.0196,-0.0209,-0.0208,-0.0207,-0.0206,-0.0148,-0.0148,0,0,0,0,0,0,-0.0184,-0.0189,-0.0232,-0.0232,-0.0209,-0.0219,-0.0224,-0.0241,-0.0234,-0.0234,-0.0247,-0.0248,-0.0227,-0.0224,-0.022,-0.0153,-0.0208,-0.0206,-0.0205,-0.0149,-0.0148,-0.0148,0,0,0,0,0,0,-0.0183,-0.0188,-0.0231,-0.0208,-0.0212,-0.022,-0.0239,-0.0241,-0.0226,-0.0234,-0.0232,-0.0228,-0.0227,-0.0223,-0.0174,-0.0154,-0.0205,-0.0204,-0.0149,-0.0149,-0.0148,-0.005,0,0,0,0,0,0,-0.0181,-0.0188,-0.0181,-0.0209,-0.0213,-0.0211,-0.0239,-0.0241,-0.0225,-0.0226,-0.0216,-0.0215,-0.0227,-0.0176,-0.0172,-0.0152,-0.0202,-0.015,-0.0149,-0.0148,-0.0054,-0.0046,-0.0039,0,0,0,0,0,-0.018,-0.0176,-0.0181,-0.0185,-0.0211,-0.021,-0.021,-0.0218,-0.0223,-0.0207,-0.0193,-0.0214,-0.0169,-0.0173,-0.0169,-0.0148,-0.0151,-0.0149,-0.0148,-0.0057,-0.0048,-0.004,0,0,0,0,0,0,-0.0133,-0.0178,-0.0184,-0.019,-0.0188,-0.0212,-0.0199,-0.0201,-0.018,-0.0172,-0.0184,-0.018,-0.015,-0.0156,-0.016,-0.0134,-0.0173,-0.0171,-0.0105,-0.0096,-0.0089,-0.0111,-0.0201,0,0,0,0,0,-0.0123,-0.0135,-0.0162,-0.0154,-0.0163,-0.0174,-0.0168,-0.0168,-0.0163,-0.0155,-0.0138,-0.0135,-0.0146,-0.0121,-0.0131,-0.0083,-0.0136,-0.0078,-0.0071,-0.0064,-0.0082,-0.0131,-0.013,-0.0144,-0.0144,-0.0144,0,0,-0.0099,-0.0122,-0.0126,-0.0144,-0.0152,-0.0139,-0.0172,-0.0155,-0.0119,-0.0151,-0.0083,-0.0108,-0.0134,-0.0103,-0.0089,-0.0093,-0.0085,-0.0063,-0.0056,-0.0079,-0.013,-0.0129,-0.0128,-0.0143,-0.0143,-0.0143,0,0,-0.0058,-0.0085,-0.0083,-0.0078,-0.0078,-0.0091,-0.0079,-0.0078,-0.0058,-0.001,-0.0039,-0.0029,-0.0019,-0.0023,-0.0035,0.0015,-0.0061,-0.0006,0.0042,-0.0004,-0.0003,-0.0003,-0.0054,-0.006,0.0019,0.0019,0.0019,0,-0.0022,-0.0033,-0.0071,-0.0054,-0.0039,-0.0066,-0.0035,-0.0021,0.0015,0.0034,0.0024,0.001,0.0015,0.0021,0.0029,0.0035,-0.0026,0.0019,0.0006,0.0005,0.0003,-0.005,-0.0057,0.0024,0.0024,0.0023,0.0023,0,0.0008,0.0025,0.0029,0.0029,0.005,0.0068,0.0077,0.0117,0.0125,0.0124,0.0138,0.0128,0.0117,0.0112,0.0086,0.0074,0.0022,0.0007,-0.0013,0.001,-0.0047,-0.0056,0.0031,0.0029,0.0028,0.0027,0,0,0.0034,0.0041,0.0057,0.0083,0.0094,0.0117,0.0174,0.0197,0.0221,0.0238,0.0258,0.0243,0.0209,0.0191,0.0164,0.0126,0.0084,0.0059,0.0054,0.0013,-0.0049,-0.0057,-0.0069,0.0048,0.0046,0.0045,-0.0077,0,0.0073,0.0128,0.0118,0.0196,0.0221,0.0226,0.0247,0.0282,0.0307,0.0325,0.0295,0.029,0.0248,0.0239,0.0196,0.0097,0.0058,0.0117,-0.0071,-0.0077,-0.0083,-0.008,-0.0045,-0.015,-0.0087,-0.0089,-0.009,0,0.0103,0.0144,0.0208,0.0255,0.0258,0.0297,0.0349,0.0384,0.0389,0.0396,0.0396,0.0351,0.0319,0.0271,0.0126,0.015,0.0055,-0.0027,-0.0033,-0.009,-0.0104,-0.0168,-0.0171,-0.0107,-0.0106,-0.0105,-0.0103,0,0.0109,0.0214,0.0266,0.0289,0.0316,0.0359,0.039,0.0413,0.041,0.0475,0.0483,0.0406,0.0351,0.0246,0.0084,0.0099,-0.0125,-0.0099,-0.0197,-0.0199,-0.023,-0.0231,-0.0213,-0.0213,-0.0212,-0.0212,-0.0212,0,0.009,0.014,0.0295,0.0288,0.0332,0.041,0.0425,0.0447,0.047,0.0455,0.0532,0.0488,0.0322,0.0184,0.0077,-0.011,-0.0118,-0.0208,-0.0234,-0.0192,-0.0189,-0.0204,-0.0201,-0.0217,-0.0216,-0.0215,-0.0214,0,-0.0007,0.0076,0.0135,0.0253,0.0291,0.0336,0.0382,0.0418,0.0492,0.0502,0.0521,0.0465,0.035,0.0197,-0.004,-0.0137,-0.0281,-0.035,-0.0297,-0.0314,-0.0315,-0.0305,-0.0421,-0.0422,-0.0424,-0.0425,-0.0425,0,-0.0084,-0.0037,0.0087,0.014,0.0178,0.0277,0.0306,0.0368,0.0427,0.0478,0.0479,0.0389,0.0343,0.0056,-0.0148,-0.0313,-0.034,-0.0426,-0.0355,-0.0324,-0.0338,-0.0327,-0.0316,-0.0358,-0.0358,-0.0358,-0.0359,0,-0.018,-0.0122,-0.0072,0.0029,0.011,0.0173,0.0282,0.0283,0.0382,0.0443,0.0476,0.0464,0.0253,0.0065,-0.0184,-0.0294,-0.0372,-0.0431,-0.0444,-0.0298,-0.0271,-0.0282,-0.0273,-0.036,-0.036,-0.036,-0.036,-0.036,-0.0219,-0.0202,-0.0089,-0.0011,0.0071,0.0158,0.0194,0.0333,0.0379,0.0505,0.0431,0.0492,0.0275,0.0024,-0.0181,-0.0386,-0.037,-0.043,-0.0427,-0.0424,-0.0382,-0.0357,-0.0456,-0.0456,-0.0457,-0.0457,-0.0457,0,-0.0192,-0.0157,-0.009,0.0005,0.009,0.0139,0.0245,0.0325,0.0436,0.05,0.056,0.0442,0.0281,0.0088,-0.0199,-0.0384,-0.0383,-0.044,-0.0387,-0.0385,-0.0384,-0.0337,-0.0401,-0.0401,-0.0401,-0.0401,0,0,-0.0162,-0.0102,-0.0072,0.0062,0.0135,0.0239,0.0302,0.0409,0.0485,0.0583,0.0619,0.06,0.0362,0.0178,-0.0071,-0.0232,-0.0268,-0.0268,-0.0297,-0.0205,-0.0201,-0.0367,-0.0293,0,0,0,0,0]}],[{"header":{"parameterUnit":"m.s-1","parameterCategory":2,"la1":30.2991,"la2":30.254,"lo1":-89.0895,"lo2":-89.0444,"dy":0.0017,"dx":0.0017,"nx":28,"ny":28,"refTime":"2023-08-24T09:00:00:Z","depth":"4","parameterNumber":2,"parameterNumberName":"U-component_of_CURRENTS"},"data":[0,0,0,0,0,0,0,0,0,0,0,0,0,0,0,0,0,0,0,0,0,0,0,0,0,0,0,0,0,0,0,0,0,0,0,0,0,0,0,0,0,0,0,0,0,0,0,0,0,0,0,0,0,0,0,0,0,0,0.0903,0.0903,0,0.0934,0.0934,0.0935,0.095,0.095,0.095,0.095,0.0961,0.0961,0.0962,0,0,0,0,0,0,0,0,0,0,0,0,0,0.0865,0.0865,0.0903,0.0903,0.0904,0.0934,0.0934,0.0935,0.095,0.095,0.095,0.095,0.0961,0.0961,0.0962,0,0,0,0,0,0,0,0,0,0,0,0,0,0.0886,0.0866,0.0903,0.0916,0.0918,0.0934,0.0934,0.0935,0.095,0.095,0.095,0.0951,0.0961,0.0961,0.0962,0.096,0,0,0.0962,0.0962,0,0,0,0,0,0,0,0,0.0885,0.0887,0.0913,0.0915,0.0917,0.0939,0.0925,0.0942,0.095,0.0936,0.095,0.0951,0.0953,0.0954,0.0958,0.096,0.0961,0.0962,0.0963,0.0963,0.0963,0,0,0,0,0,0,0,0.0883,0.0886,0.0914,0.0914,0.0916,0.0924,0.0926,0.0928,0.0942,0.0938,0.0939,0.0945,0.0953,0.0957,0.0958,0.0961,0.0962,0.0963,0.0963,0.0963,0.0997,0.0997,0,0,0,0,0,0,0.0881,0.0885,0.0913,0.0915,0.0902,0.0924,0.0927,0.0931,0.0942,0.0945,0.0944,0.0945,0.0957,0.0958,0.0958,0.1024,0.0963,0.0963,0.0963,0.0996,0.0997,0.0997,0,0,0,0,0,0,0.088,0.0884,0.0912,0.0902,0.0906,0.0925,0.0929,0.0932,0.096,0.0948,0.095,0.0972,0.0957,0.0958,0.0973,0.1022,0.0963,0.0963,0.0995,0.0996,0.0997,0.1111,0,0,0,0,0,0,0.0879,0.0883,0.0895,0.0901,0.0906,0.0935,0.0929,0.0932,0.0962,0.0964,0.0972,0.0972,0.0957,0.0972,0.0973,0.1021,0.0963,0.0994,0.0995,0.0997,0.1107,0.1116,0.1125,0,0,0,0,0,0.0878,0.0892,0.0895,0.0899,0.0918,0.0936,0.0939,0.0952,0.0964,0.0978,0.0981,0.0973,0.0982,0.0973,0.0974,0.1023,0.0993,0.0995,0.0997,0.1103,0.1114,0.1124,0,0,0,0,0,0,0.0884,0.0895,0.0898,0.0916,0.0931,0.0939,0.0961,0.0969,0.0985,0.0995,0.0982,0.0982,0.1012,0.0993,0.0984,0.1032,0.0987,0.0989,0.1067,0.1078,0.1087,0.1129,0.0964,0,0,0,0,0,0.089,0.0905,0.0913,0.0932,0.0943,0.0958,0.0972,0.0982,0.0992,0.1001,0.1007,0.1009,0.1015,0.1027,0.1021,0.1052,0.1024,0.1081,0.109,0.1098,0.1129,0.1099,0.1109,0.1003,0.1003,0.1003,0,0,0.0899,0.0909,0.0918,0.0936,0.0952,0.0971,0.0967,0.0999,0.1026,0.0999,0.1043,0.104,0.1026,0.1058,0.1071,0.1054,0.1112,0.11,0.1107,0.1135,0.1102,0.1113,0.1122,0.1004,0.1004,0.1004,0,0,0.0924,0.0935,0.0956,0.0972,0.1,0.1002,0.1018,0.1041,0.1065,0.1099,0.1087,0.1117,0.1124,0.1133,0.1136,0.1189,0.1154,0.1186,0.1281,0.1251,0.126,0.1268,0.1247,0.1252,0.1199,0.1199,0.1199,0,0.0934,0.0957,0.0967,0.0993,0.1007,0.102,0.1043,0.1071,0.1099,0.1127,0.1125,0.1169,0.1165,0.1212,0.1244,0.1216,0.1191,0.1246,0.1265,0.1272,0.1278,0.1254,0.1258,0.1205,0.1204,0.1204,0.1203,0,0.0968,0.0994,0.1012,0.1041,0.1058,0.1083,0.111,0.1139,0.117,0.1204,0.1269,0.1274,0.1296,0.1311,0.1308,0.1361,0.1326,0.1274,0.1245,0.1297,0.1267,0.1269,0.1213,0.1211,0.1209,0.1208,0,0,0.0946,0.1019,0.1025,0.1043,0.1083,0.1092,0.1145,0.1189,0.1224,0.1292,0.1333,0.1411,0.1433,0.1438,0.1436,0.1455,0.1486,0.141,0.1406,0.1404,0.1432,0.1384,0.1381,0.1435,0.1436,0.1436,0.1395,0,0.0962,0.1017,0.1048,0.1087,0.1105,0.1135,0.1176,0.1227,0.127,0.131,0.138,0.142,0.1473,0.1485,0.1521,0.148,0.1498,0.1504,0.1371,0.1368,0.1331,0.1384,0.144,0.1396,0.1396,0.1397,0.1397,0,0.0956,0.0997,0.1048,0.1097,0.1109,0.1136,0.1177,0.122,0.1297,0.134,0.1424,0.1453,0.1536,0.1526,0.1562,0.1562,0.1526,0.1504,0.1499,0.1424,0.1325,0.1331,0.14,0.14,0.14,0.1399,0.1399,0,0.0897,0.0974,0.1012,0.1033,0.1104,0.1131,0.1162,0.1236,0.1279,0.1354,0.1388,0.1479,0.1515,0.1513,0.1538,0.153,0.1532,0.1477,0.1409,0.1403,0.1407,0.1399,0.1479,0.1479,0.1479,0.1479,0.1479,0,0.0865,0.0892,0.0993,0.101,0.1052,0.1105,0.1148,0.12,0.1267,0.1324,0.1406,0.1454,0.1518,0.1538,0.1524,0.1502,0.1516,0.1454,0.1399,0.1454,0.1452,0.1408,0.14,0.1477,0.1478,0.1478,0.1478,0,0.0791,0.0859,0.0904,0.0996,0.1025,0.1052,0.1136,0.1168,0.1248,0.1304,0.1334,0.1444,0.149,0.1529,0.1514,0.1485,0.1443,0.1416,0.1503,0.1448,0.1332,0.1331,0.1322,0.132,0.1319,0.1317,0.1316,0,0.077,0.0787,0.0886,0.0918,0.0966,0.1021,0.1061,0.1149,0.1184,0.13,0.1315,0.1404,0.1468,0.142,0.1463,0.1424,0.141,0.1371,0.1363,0.1374,0.1321,0.1322,0.1322,0.1314,0.1313,0.1313,0.1313,0,0.0728,0.0763,0.0808,0.0874,0.0924,0.0968,0.1029,0.1045,0.1147,0.1227,0.1278,0.131,0.1359,0.1384,0.138,0.1347,0.1388,0.1355,0.1357,0.1349,0.1363,0.1312,0.1315,0.1307,0.1308,0.1309,0.1309,0,0.0704,0.0721,0.0781,0.0826,0.0887,0.091,0.0941,0.099,0.1035,0.1161,0.1177,0.1266,0.1353,0.1343,0.133,0.1315,0.1289,0.1232,0.124,0.1247,0.1248,0.1257,0.1143,0,0,0,0,0,0.0687,0.0695,0.0733,0.0779,0.083,0.0863,0.0927,0.096,0.1052,0.1062,0.1116,0.1157,0.1191,0.1234,0.1202,0.1288,0.1285,0.1245,0.1222,0.1278,0.1284,0.1296,0,0,0,0,0,0,0.0674,0.0708,0.0716,0.0733,0.0752,0.0799,0.0837,0.0892,0.0895,0.0995,0.1015,0.1094,0.1134,0.1201,0.1185,0.1195,0.1157,0.1298,0.1295,0.1274,0.128,0.1285,0.1299,0,0,0,0,0]},{"header":{"parameterUnit":"m.s-1","parameterCategory":2,"la1":30.2991,"la2":30.254,"lo1":-89.0895,"lo2":-89.0444,"dy":0.0017,"dx":0.0017,"nx":28,"ny":28,"refTime":"2023-08-24T09:00:00:Z","depth":"4","parameterNumber":3,"parameterNumberName":"V-component_of_CURRENTS"},"data":[0,0,0,0,0,0,0,0,0,0,0,0,0,0,0,0,0,0,0,0,0,0,0,0,0,0,0,0,0,0,0,0,0,0,0,0,0,0,0,0,0,0,0,0,0,0,0,0,0,0,0,0,0,0,0,0,0,0,-0.0165,-0.0165,0,-0.021,-0.021,-0.0211,-0.0237,-0.0237,-0.0237,-0.0237,-0.0326,-0.0329,-0.0331,0,0,0,0,0,0,0,0,0,0,0,0,0,-0.0127,-0.0128,-0.0165,-0.0165,-0.0166,-0.0209,-0.021,-0.0211,-0.0237,-0.0237,-0.0237,-0.0237,-0.0326,-0.0328,-0.0331,0,0,0,0,0,0,0,0,0,0,0,0,0,-0.0156,-0.0128,-0.0165,-0.0183,-0.0185,-0.0209,-0.021,-0.0211,-0.0237,-0.0237,-0.0237,-0.0237,-0.0325,-0.0328,-0.0332,-0.0354,0,0,-0.0343,-0.0344,0,0,0,0,0,0,0,0,-0.0154,-0.0158,-0.018,-0.0182,-0.0184,-0.0217,-0.023,-0.0261,-0.0237,-0.0219,-0.0237,-0.0237,-0.0293,-0.0299,-0.0309,-0.0358,-0.0362,-0.0343,-0.0345,-0.0347,-0.0348,0,0,0,0,0,0,0,-0.0152,-0.0156,-0.0184,-0.018,-0.0183,-0.0198,-0.0202,-0.0236,-0.0257,-0.022,-0.0222,-0.0225,-0.0295,-0.0305,-0.0311,-0.0363,-0.0343,-0.0346,-0.0348,-0.035,-0.0458,-0.0459,0,0,0,0,0,0,-0.0143,-0.0154,-0.0182,-0.0185,-0.0167,-0.0198,-0.0203,-0.0207,-0.0256,-0.0263,-0.0225,-0.0226,-0.0299,-0.0307,-0.0315,-0.0369,-0.0347,-0.035,-0.0352,-0.0458,-0.0459,-0.0459,0,0,0,0,0,0,-0.0142,-0.0145,-0.0181,-0.0169,-0.0175,-0.0198,-0.0204,-0.0208,-0.0222,-0.0259,-0.0267,-0.0234,-0.03,-0.031,-0.035,-0.0372,-0.0352,-0.0355,-0.0457,-0.0458,-0.0459,-0.0462,0,0,0,0,0,0,-0.0141,-0.0145,-0.0147,-0.0169,-0.0175,-0.0196,-0.0204,-0.0209,-0.0223,-0.0225,-0.0269,-0.0277,-0.03,-0.0345,-0.0354,-0.0376,-0.0358,-0.0456,-0.0457,-0.0459,-0.0461,-0.0463,-0.0465,0,0,0,0,0,-0.0139,-0.0145,-0.0147,-0.0151,-0.0177,-0.0196,-0.0201,-0.0219,-0.0223,-0.0231,-0.0262,-0.0276,-0.036,-0.0348,-0.0359,-0.0383,-0.0455,-0.0457,-0.0459,-0.046,-0.0463,-0.0465,0,0,0,0,0,0,-0.0137,-0.0148,-0.0152,-0.0162,-0.0177,-0.02,-0.021,-0.022,-0.025,-0.0254,-0.0287,-0.0298,-0.0345,-0.036,-0.0346,-0.0417,-0.041,-0.0414,-0.0407,-0.041,-0.0412,-0.038,-0.0361,0,0,0,0,0,-0.0135,-0.0138,-0.0154,-0.0163,-0.0169,-0.0189,-0.0199,-0.021,-0.0237,-0.025,-0.0281,-0.0318,-0.0359,-0.038,-0.0417,-0.0453,-0.0457,-0.0475,-0.0477,-0.0478,-0.046,-0.0484,-0.0486,-0.0465,-0.0465,-0.0465,0,0,-0.0139,-0.0143,-0.0148,-0.0162,-0.0175,-0.0192,-0.0196,-0.0212,-0.0233,-0.0256,-0.0298,-0.0329,-0.0371,-0.0417,-0.0438,-0.0432,-0.049,-0.0481,-0.0482,-0.0461,-0.0486,-0.0488,-0.049,-0.0466,-0.0466,-0.0466,0,0,-0.0148,-0.015,-0.0156,-0.0166,-0.018,-0.0195,-0.0199,-0.0224,-0.0241,-0.0278,-0.0307,-0.0341,-0.0401,-0.0433,-0.0457,-0.049,-0.0502,-0.051,-0.0493,-0.0518,-0.0519,-0.0521,-0.0539,-0.0541,-0.0507,-0.0507,-0.0507,0,-0.0155,-0.0162,-0.0163,-0.0171,-0.0183,-0.0196,-0.0212,-0.0234,-0.0272,-0.0285,-0.0291,-0.0368,-0.0407,-0.0456,-0.0469,-0.0494,-0.0504,-0.0482,-0.0519,-0.052,-0.0522,-0.054,-0.0543,-0.0507,-0.0507,-0.0507,-0.0507,0,-0.0171,-0.0174,-0.018,-0.0194,-0.0206,-0.0222,-0.0245,-0.0264,-0.0284,-0.0302,-0.0345,-0.0386,-0.0421,-0.0451,-0.0472,-0.0506,-0.0511,-0.0522,-0.0509,-0.0524,-0.0542,-0.0545,-0.0508,-0.0508,-0.0508,-0.0508,0,0,-0.0206,-0.0193,-0.0198,-0.0191,-0.0219,-0.0224,-0.0262,-0.029,-0.0296,-0.0335,-0.0348,-0.0417,-0.0416,-0.0441,-0.0472,-0.0492,-0.0523,-0.0505,-0.0506,-0.0514,-0.0572,-0.0522,-0.0521,-0.0541,-0.0541,-0.0542,-0.0585,0,-0.0226,-0.0221,-0.0226,-0.0236,-0.0234,-0.0253,-0.0275,-0.0298,-0.032,-0.0335,-0.0371,-0.0396,-0.0421,-0.043,-0.0456,-0.0508,-0.0529,-0.0509,-0.0562,-0.0563,-0.0511,-0.0522,-0.0543,-0.0587,-0.0588,-0.0588,-0.0589,0,-0.0251,-0.0238,-0.0239,-0.0222,-0.0225,-0.0238,-0.0255,-0.0276,-0.0304,-0.0315,-0.0338,-0.0359,-0.0401,-0.0411,-0.0486,-0.0473,-0.0514,-0.0548,-0.0551,-0.0497,-0.0518,-0.0568,-0.0594,-0.0594,-0.0593,-0.0593,-0.0593,0,-0.0246,-0.025,-0.0241,-0.0241,-0.0233,-0.024,-0.0247,-0.0268,-0.0259,-0.0297,-0.0282,-0.0341,-0.0348,-0.0416,-0.0478,-0.0488,-0.0547,-0.0577,-0.057,-0.0568,-0.0598,-0.0596,-0.0618,-0.0618,-0.0618,-0.0618,-0.0618,0,-0.0249,-0.0233,-0.0231,-0.0216,-0.0195,-0.0214,-0.0193,-0.021,-0.0214,-0.0187,-0.0256,-0.0238,-0.0345,-0.0387,-0.0465,-0.0513,-0.0541,-0.0556,-0.0571,-0.0602,-0.0599,-0.0601,-0.0599,-0.062,-0.0619,-0.0619,-0.0619,0,-0.0202,-0.0212,-0.0183,-0.0182,-0.0178,-0.0155,-0.0125,-0.0106,-0.013,-0.0097,-0.0101,-0.0155,-0.0219,-0.0318,-0.0425,-0.0472,-0.0547,-0.0557,-0.0568,-0.0586,-0.0559,-0.0557,-0.0565,-0.0563,-0.0562,-0.0561,-0.056,0,-0.0158,-0.0149,-0.0135,-0.0114,-0.0102,-0.0073,-0.0046,-0.0055,-0.0034,-0.0034,-0.0013,-0.0062,-0.0107,-0.0214,-0.0341,-0.0485,-0.05,-0.054,-0.0559,-0.0537,-0.0552,-0.0551,-0.055,-0.0558,-0.0558,-0.0557,-0.0557,0,-0.0079,-0.0088,-0.0065,-0.0032,-0.0004,0.0042,0.0068,0.0103,0.0092,0.0084,0.0089,0.0023,-0.0039,-0.0169,-0.0271,-0.0379,-0.0521,-0.0527,-0.0531,-0.055,-0.0529,-0.0545,-0.0546,-0.0553,-0.0553,-0.0554,-0.0554,0,-0.0023,0.0003,0.0001,0.0045,0.0081,0.0119,0.0142,0.0163,0.0184,0.0173,0.0182,0.0088,0.0027,-0.0112,-0.0211,-0.0307,-0.0342,-0.0378,-0.0391,-0.0397,-0.0337,-0.0286,-0.0235,0,0,0,0,0,0.0019,0.0035,0.0074,0.0101,0.0142,0.0153,0.0194,0.0202,0.021,0.0235,0.0209,0.0149,0.0016,-0.0055,-0.014,-0.0212,-0.0378,-0.0315,-0.043,-0.0528,-0.0533,-0.0486,0,0,0,0,0,0,0.0035,0.0064,0.0077,0.0134,0.0161,0.0197,0.0224,0.0231,0.0238,0.0237,0.0167,0.0135,-0.0006,0.0067,-0.014,-0.0172,-0.0253,-0.0386,-0.0387,-0.0525,-0.053,-0.0534,-0.0488,0,0,0,0,0]}]]